Regional Weather Roundup
Issued by NWS Upton, NY

Current Version | Previous Version | Text Only | Print | Product List | Glossary On
Versions: 1 2 3 4 5 6 7 8 9 10 11 12 13 14 15 16 17 18 19 20 21 22 23 24 25 26 27 28 29 30 31 32 33 34 35 36 37 38 39 40 41 42 43 44 45 46 47 48 49 50
000
ASUS41 KOKX 260807
RWROKX

REGIONAL WEATHER ROUNDUP
NATIONAL WEATHER SERVICE NEW YORK NY
400 AM EDT THU MAR 26 2015

NOTE: "FAIR" INDICATES FEW OR NO CLOUDS BELOW 12,000 FEET WITH NO
SIGNIFICANT WEATHER AND/OR OBSTRUCTIONS TO VISIBILITY.

NYZ071-072-176-178-NJZ106-104-260900-
NEW YORK CITY METRO AREA


CITY           SKY/WX    TMP DP  RH WIND       PRES   REMARKS
CENTRAL PARK   CLOUDY    42  38  85 NE3       30.05F FOG
LAGUARDIA APRT CLOUDY    39  37  92 NE5       30.03F FOG
KENNEDY INTL   CLOUDY    43  40  89 SW5       30.05F
NEWARK/LIBERTY CLOUDY    42  39  89 CALM      30.04F
BRNX BOT. GARD   N/A     39  39 100 CALM      30.04F
TETERBORO      CLOUDY    40  38  93 CALM      30.03F FOG
$$

NYZ177-179-078>081-260900-
LONG ISLAND NEW YORK

CITY           SKY/WX    TMP DP  RH WIND       PRES   REMARKS
FARMINGDALE    CLOUDY    44  43  96 CALM      30.05S FOG
ISLIP          FOG       44  43  96 CALM      30.03F VSB 1/2
SHIRLEY        FOG       45  44  97 S3        30.05F VSB 3/4
WESTHAMPTON    FOG       44  42  93 SW6       30.05F VSB 3/4
MONTAUK POINT    N/A     45  44  97 S5        30.05F
$$

NYZ052-065-067-260900-
HUDSON VALLEY

CITY           SKY/WX    TMP DP  RH WIND       PRES   REMARKS
WHITE PLAINS   FOG       38  36  92 SE3       30.00F VSB 3/4
NEWBURGH       FOG       36  36 100 CALM      30.03F VSB 1/2
MONTGOMERY     FOG       35  34  96 S3        30.00F VSB 1/2
POUGHKEEPSIE   CLOUDY    36  34  92 CALM      30.02F FOG
ALBANY         CLOUDY    37  34  89 S10       29.99F WCI  30
$$

NJZ001-105-106-008-010-013-015-019>022-104-260900-
NEW JERSEY

CITY           SKY/WX    TMP DP  RH WIND       PRES   REMARKS
NEWARK/LIBERTY CLOUDY    42  39  89 CALM      30.04F
TETERBORO      CLOUDY    40  38  93 CALM      30.03F FOG
CALDWELL       CLOUDY    39  36  89 CALM      30.03F FOG
MORRISTOWN     CLOUDY    41  37  87 CALM      30.03F FOG
SOMERVILLE     CLOUDY    39  37  92 CALM      30.02F FOG
SUSSEX         PTCLDY    36  33  89 CALM      30.01F FOG
ANDOVER          N/A     35  34  96 CALM      30.01F
TRENTON        CLOUDY    40  38  93 CALM      30.04F FOG
MILLVILLE      MOCLDY    46  45  96 SW3       30.05F FOG
ATLANTIC CITY  FOG       49  48  97 SW6       30.05F VSB 1/4
WRIGHTSTOWN    FOG       40  39  99 W2        30.02F VSB 3/4
TOMS RIVER     CLOUDY    43  43 100 CALM      30.04F VSB 1/2
BELMAR         CLOUDY    43  37  81 CALM      30.04F VSB 1/4
$$

PAZ047>061-062-071-260900-
EASTERN PENNSYLVANIA

CITY           SKY/WX    TMP DP  RH WIND       PRES   REMARKS
PHILADELPHIA   MOCLDY    42  40  92 CALM      30.06F FOG
ALLENTOWN      PTCLDY    36  33  89 CALM      30.04F FOG
SCRANTON       CLEAR     36  33  89 S3        29.99F FOG
$$

CTZ002-004>006-009-010-012-RIZ004-006-007-MAZ004-011-015-260900-
SOUTHERN NEW ENGLAND
 IN CT

CITY           SKY/WX    TMP DP  RH WIND       PRES   REMARKS
BRADLEY INTL   CLOUDY    38  36  92 S6        30.02F FOG     WCI  33
HARTFORD       CLOUDY    38  37  97 CALM      30.04F FOG
DANBURY        FOG       35  32  88 CALM      30.03F VSB 1/2
WTRBRY/OXFORD  CLOUDY    36  30  80 W5        30.04S VSB 1/4 WCI  32
BRIDGEPORT     FOG       38  38 100 CALM      30.05F VSB 1/2
MERIDEN        FOG       36  35  96 CALM      30.04S VSB 1/2
NEW HAVEN      FOG       38  38 100 CALM      30.04F VSB 1/4
CHESTER        FOG       43  41  93 S3        30.03F VSB 1/4
GROTON         FOG       42  41  96 SE6       30.03F VSB 3/4
WILLIMANTIC    FOG       36  35  96 CALM      30.03F VSB 1

 IN RI

CITY           SKY/WX    TMP DP  RH WIND       PRES   REMARKS
PROVIDENCE     CLOUDY    43  42  97 S8        30.04F
BLOCK ISLAND   CLOUDY    43  39  87 S14       30.03F
WESTERLY       CLOUDY    43  42  97 S7        30.04F FOG

 IN MA

CITY           SKY/WX    TMP DP  RH WIND       PRES   REMARKS
BOSTON         CLOUDY    42  41  96 S12       30.02F
WORCESTER      FOG       38  37  97 SW14      29.97F VSB 1/2 WCI  30
WESTFIELD      CLOUDY    37  35  92 S6        30.00F FOG     WCI  32
PROVINCETOWN     N/A    N/A N/A N/A MISG        N/A
NANTUCKET      CLOUDY    43  40  89 S17G25    30.07F
$$

ANZ330-335-338-340-345-350-353-355-260900-
COASTAL MARINE OBSERVATIONS


STATION/POSITION TIME  SKY/WX   TEMP    WIND        PRES    VSBY  WAVE
                                AIR SEA DIR/SP/G                  HT/PER
                 (UTC)          (F)     (DEG/KT/KT) (MB)    (MI)  (FT/S)
NY HARB ENTRANCE 0750            39 38   CALM  /  2 1017.2          3/ 5
4S FIRE IS       0703               37                N/A           2/ 5
20S FIRE ISLAND  0650               38              1019.1          3/ 5
23SW MTP         0650                                 N/A           4/ 5
HUDSON CANYON    NOT AVBL
EXECUTION ROCKS  NOT AVBL
WESTERN LI SOUND NOT AVBL
CENTRAL LI SOUND NOT AVBL
EASTERN LI SOUND NOT AVBL
ROBBINS REEF     0700            40     250/  2/  3 1016.8
$$


>>>>>>>>>>>>>>>>>>>>>>>>>>>> KEY <<<<<<<<<<<<<<<<<<<<<<<<<<<
>                                                          <
>     SKY/WX - SKY CONDITION/PRESENT WEATHER               <
>     TMP    - TEMPERATURE IN FAHRENHEIT                   <
>     DP     - DEWPOINT IN FAHRENHEIT                      <
>     RH     - RELATIVE HUMIDITY IN PERCENT                <
>     WIND   - DIRECTION AND SPEED IN MPH                  <
>     PRES   - MEAN SEA LEVEL PRESSURE IN INCHES OF HG     <
>     WCI    - WIND CHILL INDEX                            <
>     VSB    - VISIBILITY IN MILES                         <
>     HX     - HEAT INDEX                                  <
>     TC     - TEMPERATURE IN CELSIUS                      <
>     VRB    - VARIABLE WIND DIRECTION                     <
>                                                          <
>>>>>>>>>>>>>>>>>>>>>>>>>>>> KEY <<<<<<<<<<<<<<<<<<<<<<<<<<<





USA.gov is the U.S. government's official web portal to all federal, state and local government web resources and services.